Temp
78 81 82 83 83 83 83 83 83 83 83 83 83 83 83 83 83 83 83 83 83 83 84 84 84 84 84 84 84 84 84 83 83 84 84 84 83 83 83 83 83 82 82
80 82 82 83 83 83 83 83 83 83 83 83 83 83 83 84 83 83 83 84 84 84 84 84 84 84 84 84 84 84 83 83 84 84 84 84 84 84 84 84 83 82 83
81 82 83 82 83 83 83 83 83 83 83 83 83 83 84 84 84 84 84 84 84 84 84 84 84 84 84 84 84 84 83 84 84 84 84 78 79 84 84 84 83 83 83
82 82 82 82 83 83 83 83 83 84 84 83 83 83 84 84 84 84 84 84 84 84 84 84 84 84 84 84 84 83 83 83 84 85 79 80 83 84 83 83 83 83 82
82 82 82 82 82 83 83 83 84 84 84 83 84 84 84 84 84 84 84 84 84 84 84 83 84 83 84 84 84 83 83 83 84 81 77 78 75 82 84 83 83 83 82
82 82 82 83 83 83 83 83 84 83 83 83 83 84 83 83 83 82 83 83 83 84 84 83 84 84 84 84 83 83 83 83 82 77 78 78 76 82 83 83 83 83 82
80 81 81 83 83 83 83 83 83 83 83 83 83 84 84 84 84 83 84 83 83 83 84 84 84 84 84 84 83 83 83 82 74 75 75 73 76 81 82 83 83 82 82
80 81 81 83 83 83 83 83 83 83 83 83 84 84 84 83 83 83 83 84 83 84 84 83 83 84 84 84 83 81 81 82 79 74 75 74 77 81 83 82 82 82 82
82 79 79 79 82 83 83 83 83 83 83 83 83 83 83 83 82 82 82 83 83 83 83 84 83 83 82 83 82 82 82 82 75 72 76 73 78 81 83 82 82 82 82
80 79 77 77 76 76 79 83 83 82 83 83 83 83 82 82 81 82 82 82 84 84 84 84 84 84 83 82 83 83 83 82 77 74 73 70 78 82 82 83 82 82 82
80 77 79 77 76 74 74 80 82 82 82 83 82 82 81 74 75 77 81 83 84 84 84 85 84 84 83 83 83 83 84 75 75 74 71 74 76 83 82 82 82 81 81
76 74 78 78 77 75 80 75 74 76 73 72 73 74 73 75 75 79 80 82 84 85 84 84 84 84 83 75 75 81 79 76 76 72 72 75 78 81 84 83 82 82 81
80 77 74 79 76 73 76 75 73 72 71 71 72 72 74 74 73 73 74 75 76 81 77 78 76 74 76 76 75 74 75 76 73 74 76 77 77 83 83 82 81 81 81
77 78 78 76 75 73 76 75 74 72 71 72 71 73 72 72 73 72 73 73 74 75 74 72 71 72 72 76 78 76 74 75 74 73 75 81 80 82 82 80 81 81 82
78 79 80 76 75 74 74 74 74 72 73 73 72 72 74 73 73 74 73 75 75 72 73 72 71 72 73 75 82 80 74 73 74 73 73 81 80 81 81 81 81 81 81
78 79 78 76 75 75 74 73 72 73 75 72 72 71 74 73 72 73 76 77 73 73 72 71 71 72 74 77 82 83 76 75 77 76 74 77 81 81 81 82 82 82 82
79 78 78 78 77 75 74 73 73 73 75 74 73 73 73 74 73 74 73 73 76 72 73 71 72 71 73 76 76 78 80 79 80 77 77 75 78 81 82 82 82 82 82
81 80 81 83 78 76 74 73 73 73 75 73 73 73 74 74 74 73 73 75 78 73 73 74 70 72 72 72 70 72 78 82 79 77 77 76 76 79 81 82 81 81 82
79 80 77 78 78 77 75 74 73 74 73 75 73 73 73 75 76 73 74 75 74 72 72 73 73 72 72 72 71 74 73 80 79 82 79 77 76 77 76 81 80 81 82
79 79 77 81 78 75 74 73 72 73 72 73 72 72 74 76 76 74 74 74 75 74 71 72 71 72 70 69 74 74 73 73 78 79 79 81 78 78 77 77 77 78 81
81 80 78 76 75 74 72 71 71 70 72 72 72 73 75 76 76 75 74 75 74 73 71 72 73 71 70 70 69 70 70 73 79 79 78 78 79 79 78 77 75 75 77
80 78 76 75 75 73 72 72 71 71 72 74 73 73 75 75 76 76 74 73 73 73 70 73 74 72 70 71 66 67 65 69 72 75 77 79 80 80 79 78 77 75 76
79 78 77 76 75 74 74 73 72 72 72 71 71 72 74 76 76 75 75 73 74 74 73 75 74 71 69 71 69 68 64 64 65 71 74 75 78 79 79 79 78 79 77
81 81 79 77 74 75 74 72 72 72 70 71 70 72 73 75 76 77 76 74 73 72 71 73 78 72 72 68 70 72 70 67 64 64 72 72 73 79 79 78 79 80 79
84 83 80 78 74 75 74 72 71 70 70 72 72 71 72 73 75 78 77 75 75 73 72 73 73 75 73 70 68 70 72 68 68 66 65 67 72 71 73 76 75 79 81
81 83 81 77 75 76 75 73 72 72 71 71 70 72 71 73 75 77 78 76 77 75 76 75 77 76 74 74 73 72 70 68 66 67 65 66 68 68 69 71 74 76 78
MSLP
1014.01 1013.71 1014.12 1014.40 1014.53 1014.73 1015.11 1015.49 1015.72 1015.81 1015.94 1016.14 1016.37 1016.60 1016.97 1017.20 1017.43 1017.74 1017.79 1017.94 1018.38 1018.64 1018.74 1018.79 1018.92 1018.91 1018.94 1018.99 1019.06 1019.13 1019.21 1019.26 1019.31 1019.37 1019.45 1019.65 1019.80 1019.93 1019.65 1020.00 1020.39 1020.75 1020.77
1013.34 1013.77 1014.17 1014.44 1014.69 1014.97 1015.28 1015.64 1015.88 1016.07 1016.26 1016.45 1016.64 1016.90 1017.14 1017.42 1017.62 1017.83 1018.00 1018.30 1018.58 1018.81 1018.98 1018.98 1019.04 1019.15 1019.14 1019.15 1019.27 1019.42 1019.58 1019.71 1019.72 1019.76 1019.75 1019.78 1019.96 1020.23 1020.16 1020.22 1020.46 1020.98 1021.08
1013.39 1013.84 1014.31 1014.65 1014.84 1015.21 1015.54 1015.71 1015.86 1016.14 1016.42 1016.68 1016.98 1017.12 1017.27 1017.49 1017.71 1017.96 1018.32 1018.62 1018.76 1019.03 1019.18 1019.18 1019.24 1019.29 1019.28 1019.28 1019.37 1019.56 1019.72 1019.84 1019.99 1020.06 1020.20 1020.39 1020.17 1020.30 1020.47 1020.40 1020.72 1021.04 1021.22
1013.01 1013.87 1014.39 1014.83 1015.08 1015.40 1015.75 1015.96 1016.10 1016.22 1016.43 1016.72 1016.99 1017.34 1017.54 1017.73 1018.05 1018.37 1018.64 1018.85 1018.98 1019.25 1019.44 1019.42 1019.31 1019.39 1019.39 1019.34 1019.37 1019.63 1019.83 1019.92 1019.96 1019.86 1020.53 1020.59 1020.55 1020.50 1020.70 1020.71 1020.89 1021.19 1021.37
1012.89 1013.89 1014.46 1014.90 1015.21 1015.50 1015.79 1016.05 1016.37 1016.49 1016.55 1016.78 1017.07 1017.39 1017.58 1017.85 1018.19 1018.53 1018.79 1018.94 1019.11 1019.26 1019.40 1019.52 1019.36 1019.38 1019.45 1019.36 1019.44 1019.56 1019.71 1019.67 1019.80 1020.14 1020.40 1020.55 1020.68 1020.78 1020.79 1021.01 1021.10 1021.41 1021.51
1013.08 1013.96 1014.44 1014.80 1015.15 1015.45 1015.83 1016.08 1016.36 1016.63 1016.64 1016.84 1017.12 1017.38 1017.56 1018.03 1018.40 1018.70 1018.82 1018.96 1019.17 1019.32 1019.44 1019.55 1019.57 1019.50 1019.52 1019.50 1019.54 1019.51 1019.39 1019.70 1019.88 1020.24 1020.38 1020.60 1020.82 1020.87 1020.95 1021.23 1021.27 1021.62 1021.77
1013.31 1014.20 1014.56 1014.71 1015.09 1015.46 1015.87 1016.16 1016.37 1016.74 1016.82 1016.98 1017.14 1017.46 1017.68 1018.03 1018.36 1018.73 1018.80 1019.01 1019.20 1019.43 1019.51 1019.55 1019.58 1019.56 1019.56 1019.56 1019.51 1019.47 1019.84 1019.84 1020.10 1020.25 1020.53 1020.69 1020.76 1020.94 1021.32 1021.58 1021.60 1021.87 1021.97
1013.02 1014.21 1014.80 1014.91 1015.17 1015.50 1015.88 1016.27 1016.46 1016.74 1016.77 1017.07 1017.16 1017.40 1017.63 1018.03 1018.43 1018.69 1018.85 1018.93 1019.24 1019.37 1019.35 1019.40 1019.53 1019.46 1019.42 1019.36 1019.38 1019.53 1019.71 1019.76 1019.92 1020.35 1020.50 1020.61 1020.56 1020.76 1021.07 1021.53 1021.61 1022.00 1022.15
1012.98 1013.88 1015.08 1015.25 1015.37 1015.67 1015.92 1016.36 1016.61 1016.80 1016.86 1017.03 1017.25 1017.52 1017.66 1017.96 1018.34 1018.45 1018.69 1018.94 1019.09 1019.19 1019.29 1019.30 1019.39 1019.50 1019.54 1019.30 1019.36 1019.43 1019.47 1019.56 1019.86 1020.21 1020.25 1020.33 1020.27 1020.68 1020.79 1021.16 1021.49 1021.86 1022.15
1013.32 1013.98 1015.11 1015.55 1015.81 1016.04 1016.21 1016.46 1016.74 1016.85 1017.00 1017.13 1017.25 1017.41 1017.56 1017.93 1018.20 1018.42 1018.63 1018.94 1018.92 1018.90 1018.91 1018.99 1019.08 1019.24 1019.46 1019.20 1018.98 1019.01 1019.05 1019.29 1019.54 1019.84 1019.94 1020.33 1020.23 1020.39 1020.81 1020.89 1021.43 1021.70 1022.02
1013.51 1014.10 1014.89 1015.65 1016.10 1016.40 1016.48 1016.60 1016.74 1016.93 1017.13 1017.24 1017.32 1017.44 1017.72 1017.96 1018.24 1018.47 1018.67 1018.63 1018.56 1018.54 1018.59 1018.81 1018.95 1018.99 1019.09 1019.06 1019.01 1018.88 1018.92 1019.07 1019.25 1019.48 1019.71 1020.03 1020.24 1020.30 1020.63 1020.89 1021.27 1021.73 1022.06
1013.42 1014.30 1014.62 1015.32 1015.88 1016.41 1016.47 1016.67 1016.88 1016.97 1017.28 1017.43 1017.47 1017.60 1017.81 1017.96 1018.21 1018.36 1018.57 1018.44 1018.47 1018.46 1018.59 1018.86 1018.90 1018.93 1018.92 1019.11 1018.91 1018.75 1018.64 1018.85 1019.04 1019.16 1019.40 1019.92 1020.11 1020.16 1020.13 1020.64 1021.25 1021.74 1022.00
1012.96 1013.79 1014.37 1014.86 1015.49 1016.03 1016.15 1016.54 1016.88 1017.06 1017.31 1017.42 1017.42 1017.56 1017.81 1017.95 1018.15 1018.46 1018.50 1018.41 1018.42 1018.43 1018.67 1018.75 1018.86 1019.04 1018.80 1018.82 1018.63 1018.50 1018.75 1018.71 1018.87 1019.05 1019.09 1019.31 1020.01 1019.79 1019.96 1020.38 1021.00 1021.39 1021.73
1013.14 1013.61 1014.06 1014.37 1015.19 1015.77 1015.77 1016.13 1016.49 1016.92 1017.16 1017.33 1017.35 1017.49 1017.77 1017.90 1018.08 1018.26 1018.27 1018.15 1018.35 1018.40 1018.67 1018.87 1019.08 1019.03 1018.69 1018.45 1018.30 1018.24 1018.67 1018.20 1018.54 1018.75 1018.63 1018.69 1019.29 1019.55 1019.88 1020.19 1020.68 1021.28 1021.47
1013.05 1013.52 1013.86 1014.38 1015.01 1015.39 1015.55 1015.85 1016.28 1016.67 1016.82 1017.02 1017.23 1017.50 1017.58 1017.72 1017.90 1017.81 1017.98 1018.12 1018.17 1018.27 1017.96 1017.96 1018.45 1018.69 1018.50 1018.55 1017.61 1017.73 1018.22 1018.17 1018.21 1018.54 1018.58 1018.92 1019.25 1019.65 1019.88 1020.01 1020.47 1021.13 1021.49
1012.84 1013.34 1013.79 1014.38 1014.79 1014.93 1015.52 1015.66 1016.07 1016.24 1016.42 1016.78 1017.06 1017.33 1017.49 1017.57 1017.96 1017.82 1017.58 1017.84 1018.28 1017.85 1017.11 1017.37 1018.22 1018.33 1018.23 1017.93 1017.23 1017.07 1017.69 1017.89 1018.02 1018.34 1018.73 1019.05 1019.51 1019.85 1019.96 1019.93 1020.26 1020.89 1021.33
1012.38 1013.02 1013.76 1014.21 1014.50 1015.06 1015.38 1015.48 1015.82 1016.13 1016.28 1016.54 1016.74 1017.00 1017.28 1017.29 1017.67 1017.71 1017.80 1017.96 1018.16 1017.78 1017.57 1017.66 1017.96 1018.69 1018.55 1017.64 1017.67 1017.37 1016.76 1017.32 1017.45 1018.13 1018.73 1019.07 1019.56 1019.78 1019.96 1019.91 1020.09 1020.54 1021.03
1012.24 1013.07 1013.61 1014.00 1014.53 1014.81 1015.18 1015.32 1015.66 1015.96 1016.08 1016.30 1016.49 1016.66 1016.86 1017.08 1017.34 1017.75 1017.71 1017.44 1017.26 1017.68 1017.54 1017.44 1018.23 1018.43 1018.15 1018.22 1018.46 1017.95 1017.29 1016.79 1017.38 1018.03 1018.56 1019.00 1019.40 1019.59 1019.80 1019.88 1020.00 1020.26 1020.63
1012.20 1012.89 1013.42 1013.67 1014.07 1014.45 1014.77 1014.99 1015.38 1015.64 1015.97 1016.00 1016.27 1016.42 1016.64 1017.06 1017.25 1017.48 1017.46 1017.31 1017.41 1017.31 1017.68 1017.91 1018.39 1018.46 1018.17 1018.37 1018.16 1017.80 1017.74 1017.44 1017.44 1017.57 1018.03 1018.68 1019.04 1019.22 1019.57 1019.75 1019.92 1020.15 1020.30
1012.06 1012.59 1013.22 1013.39 1013.71 1014.13 1014.54 1015.05 1015.46 1015.63 1015.83 1015.83 1016.05 1016.26 1016.54 1016.89 1016.95 1017.34 1017.27 1017.04 1017.30 1017.41 1017.94 1017.88 1018.39 1018.65 1018.63 1018.07 1017.81 1017.79 1017.94 1017.88 1017.16 1017.54 1017.80 1018.14 1018.59 1018.85 1019.15 1019.48 1019.70 1019.89 1019.95
1011.81 1012.31 1012.55 1013.14 1013.53 1014.15 1014.61 1015.17 1015.52 1015.62 1015.69 1015.84 1015.90 1016.08 1016.36 1016.37 1016.61 1016.95 1017.08 1017.08 1017.29 1017.56 1017.76 1017.73 1017.92 1018.63 1019.17 1018.93 1018.55 1018.28 1018.65 1018.13 1017.65 1017.52 1017.62 1017.88 1018.17 1018.58 1018.74 1019.03 1019.49 1019.68 1019.80
1011.05 1011.79 1012.47 1012.95 1013.31 1013.85 1014.37 1014.73 1015.01 1015.19 1015.38 1015.51 1015.78 1016.07 1016.14 1016.30 1016.34 1016.61 1016.85 1017.28 1017.33 1017.35 1017.83 1017.70 1017.66 1017.93 1018.39 1018.65 1018.90 1019.42 1019.41 1018.53 1018.02 1017.69 1017.52 1017.68 1017.91 1018.11 1018.39 1018.54 1018.97 1019.27 1019.48
1010.70 1011.41 1012.19 1012.70 1013.05 1013.44 1014.02 1014.46 1014.77 1015.07 1015.30 1015.63 1015.91 1016.21 1016.14 1015.98 1016.08 1016.29 1016.66 1016.67 1016.99 1017.06 1017.25 1017.56 1017.56 1017.71 1018.26 1018.18 1018.38 1018.69 1019.26 1019.03 1019.15 1018.11 1017.47 1017.75 1017.84 1018.00 1018.02 1018.26 1018.58 1018.78 1019.05
1011.37 1011.16 1011.67 1012.33 1012.88 1013.16 1013.61 1014.15 1014.52 1014.67 1015.11 1015.33 1015.66 1015.99 1016.07 1016.11 1016.12 1015.93 1016.08 1016.45 1016.73 1016.87 1017.01 1017.06 1017.20 1017.31 1017.45 1017.74 1018.16 1017.92 1018.10 1018.77 1019.26 1018.96 1018.04 1017.95 1018.03 1018.35 1018.00 1018.08 1018.36 1018.40 1018.62
1010.87 1010.85 1011.25 1011.85 1012.49 1012.85 1013.36 1013.80 1014.25 1014.45 1014.76 1014.97 1015.49 1015.90 1016.03 1016.11 1016.07 1015.98 1015.75 1015.92 1016.40 1016.90 1016.98 1016.80 1017.27 1016.97 1017.09 1017.57 1018.02 1017.92 1018.17 1018.84 1018.47 1018.86 1018.88 1018.82 1018.41 1018.29 1018.21 1018.40 1018.34 1018.28 1018.07
1009.81 1010.45 1010.97 1011.60 1012.13 1012.59 1013.07 1013.56 1014.00 1014.27 1014.51 1014.84 1015.34 1015.75 1015.90 1015.92 1015.83 1015.68 1015.62 1015.76 1015.87 1016.32 1016.60 1016.51 1016.76 1016.89 1017.18 1017.30 1017.64 1017.90 1018.06 1018.49 1018.91 1018.89 1019.12 1019.04 1018.70 1018.69 1018.50 1018.39 1017.62 1017.75 1017.80
Wind_Speed
10 14 19 17 19 20 19 17 16 15 16 16 18 18 18 18 18 17 17 17 14 11 10 11 10 10 10 12 13 14 16 16 16 16 16 16 14 12 20 20 19 13 18
17 14 20 18 18 19 19 18 16 16 16 14 16 16 16 16 16 16 15 15 13 10 9 10 10 10 9 10 12 12 14 13 12 14 16 15 13 12 17 20 19 14 18
16 14 15 19 18 19 18 17 17 18 17 15 14 15 15 14 14 13 14 12 11 9 8 8 8 8 9 9 10 12 12 12 12 13 11 4 6 16 17 20 19 18 18
18 13 13 18 18 18 18 16 16 18 17 16 15 15 14 13 12 10 10 8 8 7 6 5 7 7 8 9 10 12 11 11 11 12 3 4 5 14 15 17 18 18 19
19 13 14 19 19 19 18 16 16 16 17 17 14 15 14 12 11 9 7 6 6 4 5 5 7 9 8 10 10 13 12 12 9 6 4 4 4 10 16 17 17 17 18
19 15 16 19 21 20 19 18 17 17 18 17 16 16 15 13 11 8 6 5 4 5 4 5 5 7 8 10 12 13 15 11 9 2 3 4 3 10 11 14 15 17 17
18 15 14 19 21 20 19 20 19 18 18 16 15 13 13 11 9 7 6 3 4 4 5 5 7 8 8 12 13 13 10 10 4 4 4 3 5 10 12 13 16 15 15
19 15 13 19 20 20 20 20 19 18 17 13 12 12 11 10 8 4 2 1 1 4 6 7 7 9 10 13 14 12 10 8 3 3 2 2 2 17 17 14 16 15 15
18 16 10 11 17 20 20 20 18 17 16 15 12 10 9 8 6 2 2 0 2 5 5 6 7 8 10 12 13 13 11 10 4 3 5 3 4 20 18 16 16 17 15
16 15 8 7 7 7 10 19 18 15 16 15 11 9 8 6 3 0 1 2 4 6 7 8 8 7 9 13 15 15 14 12 5 5 4 3 7 20 20 19 16 17 18
14 14 13 10 9 6 7 10 14 14 14 14 10 9 6 2 1 2 2 6 8 9 9 9 8 11 12 12 13 13 13 3 6 5 2 8 8 16 22 20 20 18 17
13 12 13 12 12 9 7 6 5 6 4 4 4 3 4 3 1 1 3 8 9 9 9 8 8 10 11 3 4 11 4 3 3 4 3 12 12 15 20 22 21 20 17
14 7 9 13 11 9 6 6 4 3 3 3 5 3 2 2 1 2 2 3 3 7 2 0 4 2 6 4 6 4 1 3 2 5 7 12 15 17 18 21 22 23 19
11 10 10 8 10 8 4 5 7 5 3 3 3 5 3 2 2 2 3 3 2 1 2 1 2 4 7 6 8 7 6 6 4 4 7 14 16 16 16 17 26 22 20
12 10 12 9 7 8 6 5 6 6 5 4 4 4 3 3 3 3 3 2 2 4 3 2 3 6 6 5 9 8 8 6 5 2 3 17 15 16 17 19 22 20 20
13 12 7 9 7 7 5 6 5 5 6 5 4 5 5 3 3 3 5 2 4 4 4 3 3 6 4 4 7 7 9 9 7 7 5 7 15 15 16 18 19 19 20
13 11 8 10 9 8 7 6 5 4 5 4 4 6 7 5 4 5 4 4 8 6 3 0 3 4 5 4 7 5 4 7 8 7 6 6 8 15 14 15 17 18 18
15 13 10 11 11 10 7 5 5 5 5 4 4 5 7 6 6 3 4 4 2 4 3 4 3 4 3 4 4 5 4 4 8 8 8 7 6 6 10 14 15 15 16
13 13 10 8 13 10 8 6 6 6 4 6 4 5 6 6 5 4 4 3 3 3 2 2 2 3 2 1 2 4 4 1 8 9 9 8 9 8 6 12 13 14 15
12 12 8 7 8 8 6 5 3 4 3 4 4 4 6 6 6 4 4 4 2 1 1 2 3 2 1 1 1 5 3 5 3 7 9 8 7 7 7 7 7 7 14
11 14 13 10 8 8 4 3 3 4 3 3 4 6 6 5 5 4 3 2 2 3 5 5 4 6 2 4 3 5 4 6 4 3 5 5 6 8 7 7 4 3 6
15 10 8 7 12 7 4 3 3 4 3 4 3 4 5 6 5 4 4 4 2 2 5 3 2 2 3 3 4 2 3 4 3 3 3 5 9 7 7 8 8 7 6
14 13 10 10 12 8 7 4 2 2 2 2 3 3 4 6 5 5 7 4 3 2 2 3 3 4 3 1 4 4 2 4 2 3 4 2 4 8 7 9 10 10 8
10 13 12 10 8 8 8 7 6 5 5 4 4 3 4 5 6 5 6 4 5 2 1 2 2 3 4 1 1 3 2 4 3 2 3 2 1 4 8 6 8 9 9
12 13 12 11 9 9 8 7 6 5 4 3 4 6 5 5 7 6 6 6 4 4 3 4 5 2 3 2 2 1 3 2 2 3 1 3 3 2 1 2 3 6 10
6 12 13 13 9 11 9 8 8 7 6 4 5 6 4 4 4 7 7 6 6 4 3 3 2 1 2 2 2 2 2 4 2 2 1 3 3 2 1 5 4 1 4
Wind_Direction
146 137 139 140 134 131 133 130 119 110 103 102 100 99 96 94 94 94 94 93 99 100 98 90 82 83 87 89 90 94 98 103 104 106 108 107 109 113 111 108 105 102 106
140 139 141 144 139 135 134 131 128 122 114 106 103 101 101 100 100 99 95 103 106 105 98 95 92 85 91 97 102 99 107 103 105 111 114 110 107 130 120 116 114 113 110
135 139 141 144 144 138 136 137 135 128 125 120 114 109 106 103 102 105 111 109 110 111 117 109 105 104 108 114 120 115 111 116 119 113 106 78 98 118 113 117 113 114 115
131 135 137 143 141 140 139 142 139 133 132 128 127 126 123 120 115 111 105 112 120 132 128 127 128 128 126 133 136 134 138 138 141 131 74 135 122 125 123 121 116 116 116
132 132 140 143 144 144 145 138 133 133 132 134 134 134 137 133 128 132 137 140 145 167 160 174 170 152 148 143 143 144 148 154 148 103 131 151 117 142 132 127 123 123 120
123 130 139 144 147 146 147 145 141 138 134 133 132 137 126 121 116 104 124 150 174 195 196 198 181 163 172 161 157 155 155 146 129 100 145 169 129 153 147 136 139 128 127
122 130 138 142 146 146 145 140 141 141 136 141 146 147 131 130 130 111 99 125 191 199 205 193 194 186 189 183 173 176 163 154 153 169 123 110 173 159 154 144 132 135 133
126 129 136 139 143 146 145 145 143 149 147 147 146 141 137 131 131 122 99 56 199 197 205 199 194 196 190 188 187 187 202 223 242 219 208 187 231 164 168 155 141 140 141
126 126 136 139 139 139 141 143 145 155 151 147 151 156 145 130 117 125 124 213 205 204 210 202 209 198 193 197 198 214 237 242 222 226 215 159 266 174 172 158 151 148 146
131 131 140 131 115 123 142 149 142 143 153 157 164 172 146 134 135 70 219 282 234 206 213 205 197 208 210 216 220 227 237 239 214 226 202 176 195 175 179 175 163 158 151
137 141 146 142 135 136 133 154 151 153 164 158 157 164 147 101 195 297 288 262 214 213 219 218 213 222 226 232 236 235 242 204 210 222 167 180 187 190 177 175 176 164 156
140 148 153 155 152 150 158 141 149 148 125 139 157 127 117 137 241 174 335 280 263 236 230 232 233 243 248 217 271 256 226 200 218 224 201 188 201 215 184 179 181 172 161
152 141 160 161 150 160 168 158 151 127 143 173 167 126 168 181 222 51 296 278 234 259 265 14 278 295 278 237 226 224 289 284 226 194 218 217 217 200 185 194 190 177 172
152 167 159 154 136 172 165 154 147 153 168 176 184 175 184 182 226 245 244 247 251 171 160 1 278 288 265 281 245 210 176 214 215 195 205 194 188 182 180 178 184 180 182
162 167 166 162 161 173 157 145 147 162 175 177 176 191 224 174 226 269 266 257 280 150 233 245 295 282 288 253 250 196 183 217 234 150 147 171 180 182 173 166 172 184 190
157 161 156 158 165 151 148 154 161 161 178 170 177 187 215 208 196 252 266 264 150 197 180 226 224 256 284 250 263 223 170 202 190 139 141 163 191 186 178 169 169 183 195
158 159 164 153 155 150 166 164 156 172 169 175 181 184 199 219 211 244 263 254 164 207 193 224 238 345 259 357 339 283 223 147 151 128 151 159 181 190 190 176 172 176 185
145 158 168 161 160 160 169 173 160 179 186 178 185 191 203 211 228 235 275 293 178 122 157 181 108 357 331 12 3 303 279 140 137 152 157 164 171 176 180 175 173 177 184
151 160 169 154 162 171 158 153 168 181 184 186 183 195 201 218 229 220 270 270 52 160 125 185 114 151 191 327 34 311 320 235 156 168 159 174 177 169 175 183 179 180 188
169 158 169 177 157 157 141 142 154 165 179 180 186 193 192 213 223 208 251 267 204 191 178 289 150 228 49 179 174 278 10 310 224 161 172 175 185 171 169 183 185 194 199
150 165 167 162 157 140 157 142 164 180 184 186 186 184 201 216 214 207 243 2 327 187 226 217 156 168 135 197 33 344 319 251 313 183 161 179 179 174 179 173 182 181 201
164 172 168 169 153 162 162 158 158 168 202 185 165 178 205 224 233 200 217 207 213 164 204 255 75 95 73 187 146 119 359 333 7 348 97 158 178 178 183 180 181 190 192
166 176 174 171 171 170 167 150 143 157 137 132 141 165 213 221 229 241 209 200 215 165 190 203 130 119 154 202 211 129 131 234 6 299 290 298 193 177 183 188 193 197 193
183 171 167 164 159 152 157 159 169 169 172 186 166 171 204 228 255 225 197 196 223 117 172 218 208 165 120 6 331 251 133 115 148 289 325 312 272 226 191 199 200 201 191
191 177 168 159 157 156 157 165 177 175 185 156 162 181 208 213 230 233 201 214 232 170 196 263 290 177 149 142 196 348 112 85 50 131 178 308 38 35 48 19 207 223 189
194 159 162 160 162 157 163 169 180 194 198 170 168 187 184 219 224 219 202 200 193 195 212 256 224 163 212 188 201 73 130 134 202 181 163 236 232 310 313 285 330 131 226